Theta_e
323 323 324 324 324 324 324 323 323 323 323 323 323 323 323 323 324 324 323 324 325 325 326 326 327 328 328 329 329 328 325 329 330 330 334 346 356 366 366 362 364 361 365 354 352 352 347 347 343 346 341 339 338 336 333 334 332 327 321 319 316 319 319 324 323 327 332 330 332 334 335 332 331 337 337 342 338 338 339 339 343 346 347 350 350 352 353 353
323 324 324 324 324 324 323 323 323 323 322 323 323 323 323 323 323 323 323 324 324 325 325 326 327 328 329 329 329 328 327 329 330 331 333 349 366 370 364 363 361 366 367 352 354 347 344 342 340 340 338 334 341 328 333 326 331 322 319 319 315 320 322 328 328 330 329 328 332 332 333 332 333 334 337 334 333 335 334 337 340 340 343 349 350 350 349 351
323 324 324 324 323 323 323 323 323 322 322 322 322 322 322 323 323 323 323 324 324 324 325 326 327 328 329 329 328 326 328 331 329 327 336 360 369 367 363 362 359 364 357 354 348 345 340 337 340 339 337 333 338 327 330 326 329 327 322 317 318 324 325 328 331 330 333 332 327 328 333 332 330 333 338 331 331 334 332 332 335 336 337 342 346 348 348 347
323 323 323 324 323 323 323 323 322 322 322 322 322 322 322 322 323 322 323 323 323 324 325 326 327 328 329 329 326 327 330 333 328 335 345 363 370 365 364 359 363 364 358 355 355 346 343 342 341 338 335 332 331 333 326 328 326 325 322 318 321 326 325 328 331 332 331 331 328 327 329 330 332 334 333 331 330 331 334 337 337 336 338 338 342 344 345 344
323 323 323 323 323 323 323 322 322 321 321 321 321 321 321 322 322 322 322 322 323 324 325 326 328 328 329 327 325 328 331 319 327 336 350 365 370 368 363 362 364 357 354 355 353 347 342 339 339 337 334 326 329 328 328 329 330 328 323 325 325 326 323 327 328 330 331 334 332 331 326 327 336 332 333 331 327 327 333 337 341 341 342 342 341 344 346 348
323 323 323 323 323 323 322 322 321 321 321 321 321 321 321 321 322 322 322 323 323 324 326 327 328 328 327 323 325 329 326 310 333 335 364 368 370 366 367 366 369 367 356 353 350 342 338 338 336 332 329 328 327 324 327 329 331 319 324 325 327 327 324 328 331 333 334 331 325 325 330 333 329 329 331 331 330 334 340 341 342 344 346 347 346 345 344 345
322 322 322 322 322 322 321 321 321 321 321 321 321 321 321 321 321 322 322 323 323 325 326 327 328 328 324 322 333 327 322 321 341 352 362 370 372 367 368 368 371 358 353 350 346 338 336 333 333 335 330 325 324 325 328 329 328 325 322 327 326 328 326 329 331 334 331 326 326 332 333 327 327 323 331 330 332 335 338 342 344 344 346 348 346 346 345 345
322 322 322 322 321 321 321 321 321 321 321 321 320 321 321 321 321 321 322 323 324 325 326 327 328 328 323 328 322 321 322 324 339 353 367 371 370 365 366 358 352 350 347 345 338 333 332 329 326 327 325 322 323 326 327 326 327 324 323 326 326 328 328 330 330 332 332 334 334 334 326 328 326 327 329 329 332 335 339 343 344 345 345 345 344 345 346 346
322 322 321 321 321 320 320 321 321 321 321 320 320 320 320 320 321 322 322 323 324 325 326 327 327 326 323 328 327 320 321 341 347 349 364 364 356 354 354 347 350 345 343 342 337 333 331 328 327 328 323 323 325 326 327 324 321 326 325 327 327 327 329 330 329 329 330 333 338 330 326 326 327 331 328 331 333 335 336 340 340 341 339 342 343 345 345 345
321 321 321 320 320 320 320 320 321 321 320 320 320 320 320 320 321 322 322 323 324 325 326 327 327 324 327 332 323 314 333 343 345 353 354 355 353 349 348 349 349 344 337 337 335 331 328 328 328 330 330 327 327 324 329 325 322 330 328 327 326 327 328 330 329 330 331 329 332 329 329 326 329 330 321 333 335 336 336 334 336 337 337 339 339 344 342 345
321 321 320 320 319 319 320 320 320 320 320 320 320 319 320 320 321 322 322 323 324 326 327 328 328 326 323 321 314 313 346 351 351 347 355 352 348 347 345 345 347 341 335 333 332 333 332 331 331 331 329 324 327 323 326 325 330 328 327 326 325 327 329 328 328 329 330 329 331 332 329 330 329 328 323 330 335 336 333 333 335 335 335 337 340 342 347 345
320 320 320 319 318 319 319 320 320 320 320 320 319 319 320 321 321 322 322 323 324 326 328 329 327 327 332 326 318 319 342 343 349 349 345 352 340 344 344 344 342 339 334 331 332 333 333 330 330 328 321 329 321 326 324 328 330 326 326 322 322 324 324 326 326 327 331 328 334 333 328 326 328 323 328 331 334 334 333 332 336 334 335 337 337 340 343 343
320 320 319 318 318 318 319 320 320 320 320 319 319 320 320 321 322 322 323 324 326 327 328 328 328 332 329 316 318 326 331 337 340 345 345 345 341 344 343 343 342 340 336 332 331 333 333 330 329 325 328 326 325 321 324 327 330 326 326 324 320 321 319 325 327 329 329 332 334 332 318 320 325 330 329 331 332 332 331 331 333 333 335 334 337 337 338 341
319 319 319 318 318 318 319 320 320 320 320 319 319 319 320 321 321 323 324 324 326 326 328 329 331 327 322 315 322 327 329 331 332 336 336 341 338 335 339 338 339 339 339 335 334 334 332 331 329 327 329 325 323 330 327 324 329 319 326 325 319 317 316 323 324 327 325 333 331 331 318 319 324 326 328 330 333 331 328 329 332 332 333 333 335 335 337 339
319 319 318 318 318 319 319 319 319 319 319 318 318 319 319 320 322 323 325 326 329 331 330 330 331 325 317 316 323 329 368 328 327 331 331 328 332 331 332 337 336 336 336 336 334 334 334 331 328 323 321 330 328 323 320 322 322 323 319 317 319 315 317 322 326 326 321 328 332 328 318 319 323 326 329 332 337 332 328 329 330 330 331 332 334 334 336 335
319 318 318 318 318 318 318 318 318 318 318 318 317 318 319 320 322 324 327 328 329 328 330 329 328 323 314 311 318 339 325 320 320 325 327 328 327 326 329 330 334 333 333 332 335 334 332 330 323 323 322 325 322 318 320 317 318 320 317 316 313 315 315 317 323 325 327 326 328 326 318 322 321 327 328 331 331 330 329 328 329 329 331 331 334 335 335 334
318 318 318 318 318 318 318 318 318 318 318 317 317 318 320 322 325 328 330 330 329 334 328 325 325 327 311 320 325 319 320 323 325 324 324 327 328 329 328 326 325 328 331 331 332 332 330 326 326 323 324 319 321 320 315 313 313 313 316 314 314 313 314 313 321 323 326 326 322 326 321 320 323 326 328 329 330 329 329 327 329 329 330 332 334 333 333 335
318 318 317 317 317 318 318 318 318 318 318 317 317 320 322 326 328 327 331 329 328 330 330 328 323 318 313 320 313 315 321 321 323 324 325 329 331 330 327 324 324 324 325 325 329 325 327 322 323 316 318 319 318 316 313 308 312 311 313 311 311 315 316 314 315 320 324 324 321 321 321 319 324 326 327 327 330 329 332 333 332 329 330 332 331 334 334 333
318 317 317 316 316 317 318 318 318 317 317 317 319 324 325 327 326 330 325 330 323 323 314 316 315 303 306 313 318 319 319 323 324 323 322 324 329 329 327 326 324 321 318 319 321 323 324 321 321 316 312 315 316 316 314 317 317 315 314 312 313 311 312 314 317 322 322 320 319 320 318 319 324 325 327 328 329 329 332 334 330 331 330 331 332 332 335 336
317 317 317 316 316 317 317 317 317 317 317 317 322 328 332 330 324 322 326 325 322 320 318 318 318 316 316 316 318 321 325 324 318 320 322 324 324 323 322 322 321 321 317 314 318 320 323 315 313 312 314 316 318 319 318 320 317 317 316 316 312 312 313 317 318 322 323 318 317 320 321 321 321 325 327 329 329 330 330 331 334 331 333 331 332 333 335 336
318 317 316 315 315 317 317 315 315 316 316 317 321 325 317 314 310 311 316 317 320 323 322 321 320 319 318 319 319 320 317 319 320 319 321 324 321 318 316 318 315 312 315 317 316 322 321 313 313 316 317 318 318 319 320 319 318 317 315 314 312 314 310 315 315 319 321 317 316 323 320 321 325 325 328 330 328 326 330 330 332 332 331 332 333 333 335 336
317 316 316 315 315 316 316 316 315 316 315 321 326 327 320 319 321 323 319 310 317 320 319 320 321 318 321 321 323 323 322 316 318 319 322 322 318 313 315 315 313 310 315 316 316 314 312 311 315 317 319 319 319 318 318 317 316 316 314 313 312 313 315 316 317 319 320 317 317 324 321 322 325 326 329 328 327 328 333 332 332 333 332 333 332 333 336 336
317 316 316 315 315 316 315 315 314 313 320 327 326 321 319 324 326 327 323 317 314 320 318 316 316 317 317 320 321 323 316 314 312 318 319 320 316 314 315 313 312 313 314 315 310 311 308 312 317 319 319 317 316 317 317 316 317 314 314 312 310 314 311 308 317 317 319 317 316 318 319 321 326 329 327 329 329 331 335 334 337 337 336 335 332 334 335 335
317 317 316 316 316 316 314 314 313 320 325 324 322 321 324 326 327 326 319 311 310 316 318 320 318 317 317 315 320 318 314 315 315 314 323 319 314 317 314 313 312 312 310 313 312 310 310 315 319 319 318 316 314 315 314 313 311 314 314 312 312 312 313 312 312 316 317 321 320 318 317 317 321 322 323 328 332 333 334 336 337 337 337 338 337 336 338 337
317 317 317 316 315 315 314 311 322 326 325 323 322 326 326 327 329 327 317 315 314 314 321 319 322 319 319 325 324 316 316 316 316 319 321 320 316 314 312 315 313 309 311 313 313 311 311 316 319 317 316 315 314 312 313 312 310 312 315 315 314 315 314 314 315 314 311 315 316 315 307 309 316 319 319 322 327 331 333 333 333 336 336 337 335 336 338 342
317 317 316 316 315 313 312 321 324 321 321 322 324 327 326 327 329 326 319 308 303 311 316 310 321 313 323 317 320 318 317 310 317 319 320 321 323 316 314 311 313 308 312 312 311 312 312 317 316 314 314 315 314 312 315 315 310 309 311 317 316 315 314 314 313 312 306 305 318 318 306 304 317 314 318 324 327 324 330 331 333 336 337 335 335 336 337 337
316 316 316 316 315 313 317 317 323 324 321 322 327 328 326 326 336 326 313 306 302 312 311 316 314 314 318 318 319 318 303 308 318 319 318 322 317 321 311 310 312 313 314 314 311 307 314 314 314 315 314 313 312 311 315 315 311 308 315 316 316 314 313 312 312 311 309 314 318 317 313 310 310 319 317 321 323 323 325 327 332 334 338 335 335 336 338 334
316 315 316 315 314 312 315 317 322 319 319 325 328 326 326 328 329 324 313 298 297 316 310 313 315 321 318 319 319 312 311 316 310 314 319 321 321 317 313 310 310 310 312 310 302 311 313 311 312 312 313 312 310 313 316 317 312 311 316 317 314 315 314 314 312 311 311 309 306 313 316 311 309 316 321 323 320 321 322 325 328 335 337 336 335 334 332 337
315 315 315 314 312 312 316 321 323 319 323 327 328 327 325 327 321 313 305 296 310 312 321 312 320 318 317 319 315 314 312 316 309 315 318 320 321 317 310 311 312 312 313 311 306 309 313 313 313 314 312 310 315 316 317 316 311 315 317 317 316 315 314 313 310 309 310 307 303 309 313 304 307 314 317 321 320 320 322 326 329 333 335 336 335 336 333 336
315 314 313 312 314 325 327 328 324 327 328 329 328 327 325 321 315 306 302 293 313 305 313 313 312 310 314 311 311 313 310 313 315 316 317 315 317 317 315 318 312 310 309 313 311 311 313 319 320 315 313 315 316 316 317 316 316 317 315 313 312 313 312 312 312 311 309 303 306 310 312 310 303 314 314 318 316 319 324 326 328 333 333 336 335 336 334 338
314 313 312 311 316 321 319 314 321 323 324 327 327 324 321 316 306 302 296 305 313 310 314 311 310 315 310 308 306 311 311 312 313 314 311 315 313 314 313 311 315 310 308 309 309 311 312 313 312 315 317 316 316 314 317 317 317 315 312 310 309 308 311 309 309 311 302 300 307 311 311 312 302 312 317 319 323 322 320 321 330 332 332 335 334 335 337 338
313 311 311 313 317 318 314 314 320 322 324 327 325 319 314 303 308 297 299 314 301 307 309 309 312 311 310 311 309 309 307 310 313 311 310 309 309 308 308 304 308 301 301 303 303 309 308 309 313 314 318 315 313 311 312 314 314 313 311 310 304 302 304 300 304 300 301 300 309 313 312 307 310 313 318 320 320 321 325 326 327 331 336 337 335 337 339 339
311 311 311 313 314 317 320 322 324 325 326 325 320 317 308 302 297 305 303 307 303 312 309 314 311 310 311 309 308 310 311 306 312 312 311 311 309 309 311 309 310 307 299 305 304 304 306 311 311 312 313 316 314 307 307 306 309 310 308 307 303 299 298 296 299 302 302 306 311 310 314 306 311 316 320 319 323 325 329 329 329 334 337 338 336 337 340 340
310 311 315 319 322 323 324 326 325 325 322 324 319 311 306 300 299 314 308 308 308 314 313 311 311 311 310 307 308 311 306 310 311 310 311 308 308 306 308 310 310 308 307 305 303 304 299 301 307 310 306 314 313 311 310 308 308 308 312 308 305 304 299 296 299 296 299 302 306 310 306 304 304 317 323 325 330 332 332 332 333 338 341 341 338 342 341 340
310 312 318 322 322 323 325 326 326 326 322 319 313 307 300 299 304 304 306 309 312 312 310 314 310 309 308 309 311 312 311 306 311 310 309 307 305 306 307 308 310 310 309 303 306 305 304 304 310 314 313 314 311 314 314 311 308 310 311 312 306 304 308 300 302 301 302 302 302 306 305 312 313 324 327 329 329 330 333 333 333 335 338 340 343 343 341 341
313 325 326 326 325 328 330 328 328 326 321 314 308 303 300 305 303 308 307 312 312 309 310 311 310 307 306 307 310 310 313 308 309 309 308 308 309 307 310 311 309 310 307 303 307 302 305 303 311 313 314 313 313 314 313 313 301 308 308 303 306 313 310 305 305 306 306 303 300 306 306 315 319 319 319 329 329 331 334 333 334 334 336 340 341 342 341 341
319 321 317 320 321 325 327 332 328 325 320 312 305 300 306 308 311 310 314 310 311 312 309 303 305 305 305 304 306 308 310 310 309 308 305 309 306 310 310 311 314 312 311 309 306 311 303 304 311 311 309 313 315 314 314 314 313 309 303 307 312 314 311 306 299 303 302 298 301 305 303 308 310 307 323 325 329 332 332 334 334 338 339 338 342 342 342 342
318 319 319 319 321 324 326 331 326 323 316 309 303 308 311 306 313 312 314 311 312 313 308 305 307 309 306 306 306 307 310 306 307 308 305 308 304 313 310 310 314 313 313 314 307 308 310 302 308 311 312 313 315 314 311 314 315 309 307 314 305 301 300 306 303 296 296 296 299 303 305 308 311 312 321 323 326 329 333 335 336 335 336 339 342 343 343 343
318 316 313 318 321 321 328 331 323 318 311 305 303 302 308 309 314 313 315 312 312 310 306 308 305 309 309 307 309 309 309 304 308 307 304 307 303 311 310 312 311 314 314 314 309 309 310 302 304 312 310 312 312 311 303 307 313 314 314 309 312 307 303 301 303 305 305 298 298 300 303 301 314 313 320 320 328 330 333 334 334 335 337 339 343 342 342 342
315 312 310 319 321 322 334 328 317 313 308 302 304 305 311 308 312 315 315 313 309 308 307 307 311 308 309 309 310 307 309 308 307 307 306 308 306 311 310 313 311 313 314 314 311 312 307 311 300 308 313 311 306 309 306 308 306 307 307 306 307 307 310 308 308 305 302 301 300 300 298 311 321 326 319 324 330 331 333 334 335 336 337 343 343 343 343 342
317 312 313 322 322 330 329 319 310 306 305 308 309 308 309 308 312 313 315 315 312 314 309 309 309 307 309 308 309 312 309 308 308 307 307 308 308 304 312 312 313 311 314 312 310 311 307 307 302 305 306 306 307 312 312 311 311 309 308 306 307 305 303 299 299 308 305 301 299 299 299 315 324 329 327 330 333 335 336 335 335 336 338 341 343 344 343 341
313 307 310 328 329 329 319 307 307 309 307 304 305 308 308 319 311 312 313 314 312 310 314 311 311 310 310 310 311 310 310 308 309 308 309 307 310 309 312 315 314 314 311 308 309 312 311 309 306 303 305 307 311 314 316 315 314 312 311 308 311 310 308 303 296 301 305 305 306 304 302 313 327 332 332 334 336 337 337 337 336 337 340 342 342 343 342 341
313 311 324 330 331 325 314 305 308 307 305 308 312 312 313 312 312 313 311 312 309 311 310 310 310 309 311 311 311 310 311 309 309 307 310 310 310 312 314 314 315 313 312 311 312 313 326 306 303 304 308 311 312 314 315 315 314 311 311 312 310 307 309 307 305 306 303 304 302 303 301 313 329 335 335 337 338 337 338 337 337 337 340 341 341 341 340 340
314 313 316 328 330 325 311 300 301 304 306 309 310 309 313 311 311 311 311 311 309 309 308 309 310 311 310 314 312 310 312 306 310 309 309 311 310 315 314 314 314 312 311 311 309 313 306 308 305 302 302 304 306 310 310 314 313 309 309 310 311 311 310 310 310 311 303 303 303 301 298 308 329 335 335 335 335 334 335 336 337 336 338 340 340 340 340 340
313 315 314 319 326 321 309 308 305 305 306 306 307 307 309 310 312 313 312 310 312 310 310 309 310 312 311 313 312 313 313 310 309 312 311 311 312 315 315 315 315 312 314 323 342 316 308 307 305 299 297 296 296 298 301 304 307 310 311 310 311 309 309 307 303 306 301 309 308 304 307 320 325 331 331 331 332 332 333 334 337 339 338 338 339 338 339 340
309 305 310 314 320 318 315 315 311 308 306 307 306 308 309 307 311 313 312 311 312 312 311 312 313 312 311 311 310 310 310 313 310 310 310 310 311 313 316 316 315 314 330 334 327 317 310 311 309 307 304 302 305 309 310 311 310 307 310 310 310 310 311 309 307 305 302 307 306 316 318 319 322 326 328 328 330 330 330 334 334 335 338 340 340 338 338 338
315 309 308 306 316 315 313 312 310 310 307 311 306 307 306 308 310 311 313 308 312 311 311 311 311 309 310 310 309 309 310 310 313 311 311 310 313 314 317 316 317 320 342 322 323 315 313 307 309 309 309 309 309 309 312 312 308 310 309 309 311 311 311 308 305 303 315 305 300 319 323 320 320 326 328 328 330 331 331 333 335 336 338 338 338 338 339 337
305 311 314 316 311 309 308 308 310 309 311 312 310 311 307 308 309 307 311 311 312 312 308 310 310 311 311 310 311 308 309 309 310 309 311 312 313 314 314 316 315 331 323 315 318 314 310 306 309 309 308 310 311 310 311 311 311 311 310 311 310 311 311 310 309 310 310 311 311 319 323 321 322 327 328 328 331 331 331 333 335 337 338 338 337 336 336 336
311 312 312 316 309 313 311 310 310 309 309 311 311 312 308 308 307 309 310 309 309 309 310 306 308 310 311 313 311 308 310 306 307 311 312 311 312 312 311 313 315 319 317 316 316 321 315 308 310 310 309 309 310 310 311 309 309 310 310 310 311 311 310 313 314 317 317 316 323 322 323 323 325 328 331 331 332 333 333 336 337 336 335 336 336 335 335 334
308 308 308 316 316 315 313 311 309 308 306 312 309 311 310 309 307 310 311 310 307 307 311 307 309 311 311 312 312 309 312 312 311 310 313 313 313 314 312 313 312 316 316 314 314 317 311 308 313 310 307 307 309 311 311 310 310 309 310 311 311 312 313 313 312 317 319 318 317 321 322 321 327 332 334 335 335 334 335 333 334 335 335 335 335 334 334 334
315 318 318 311 310 313 317 311 307 306 305 308 308 311 311 310 309 311 311 314 311 308 309 308 310 311 312 312 312 312 314 315 315 315 316 315 310 316 313 316 317 312 314 313 314 315 312 309 312 309 305 305 309 309 310 310 310 309 309 311 311 311 310 312 312 315 315 313 317 320 320 321 328 332 335 334 333 332 332 333 333 334 333 334 333 333 334 333
317 318 317 313 308 316 313 316 310 307 303 308 310 310 310 311 312 313 310 313 314 314 312 311 312 311 312 311 311 313 316 316 316 317 317 320 320 319 318 317 318 315 314 316 318 312 313 310 308 307 304 305 309 310 309 310 308 305 307 310 312 313 313 315 319 319 317 318 317 313 314 327 331 334 332 332 333 333 333 333 332 333 334 334 334 334 334 334
Wind_Speed
18 18 18 18 18 19 19 19 19 19 20 20 20 20 19 18 18 19 20 18 17 18 19 19 18 17 18 16 14 15 16 11 10 9 8 3 2 5 8 13 14 13 11 8 9 9 7 8 8 7 7 7 11 11 9 9 3 10 8 8 9 9 10 9 11 8 8 8 7 8 7 10 10 8 11 11 11 11 11 10 9 9 9 10 11 11 12 12
19 18 18 19 19 18 19 19 19 20 20 20 20 20 20 19 19 19 19 19 18 18 19 19 19 18 16 15 13 13 15 9 12 9 7 2 2 5 7 11 13 12 10 9 9 5 6 5 1 4 9 8 15 6 7 9 7 8 9 8 9 9 10 10 10 9 7 9 9 9 11 12 11 9 6 7 11 11 12 11 11 12 11 12 11 11 11 11
19 19 19 19 19 19 19 19 20 20 20 20 20 20 20 20 19 19 19 19 20 19 20 19 19 19 17 13 12 13 11 9 10 9 5 2 2 3 7 9 12 10 11 10 1 6 9 7 5 4 7 10 13 7 7 8 6 8 9 8 9 10 12 12 10 10 8 8 11 10 9 10 11 11 7 9 9 10 11 10 11 11 12 11 12 11 11 12
19 19 19 20 19 19 19 19 19 20 20 20 20 20 20 20 19 19 19 20 19 20 20 20 19 18 19 14 10 12 8 12 8 7 3 5 3 3 6 8 10 10 10 11 14 10 6 7 4 5 5 7 11 8 8 9 5 8 9 9 9 9 9 10 9 9 9 9 10 10 10 10 10 10 9 10 8 8 9 10 11 12 12 13 11 11 10 10
20 20 20 20 20 20 19 19 19 19 20 20 20 20 20 20 20 19 20 19 19 20 20 21 20 19 20 18 11 8 8 11 4 3 7 6 4 3 5 8 8 9 10 10 12 11 9 9 2 2 9 4 4 7 7 8 9 8 11 11 10 10 11 11 12 13 10 6 9 8 10 9 6 9 6 8 8 6 7 10 11 11 12 12 11 10 8 8
20 20 20 20 20 20 20 20 20 19 19 20 21 20 21 21 20 20 19 19 19 19 20 20 21 20 20 22 13 7 5 5 5 4 7 9 7 4 4 5 5 8 10 12 12 9 7 9 9 4 8 6 5 3 8 10 5 9 9 11 11 10 11 8 10 5 3 4 10 10 7 7 9 10 12 13 12 10 10 11 10 10 10 10 9 10 9 9
19 20 21 21 21 21 21 20 20 20 19 19 20 21 22 21 20 20 20 19 18 18 20 19 19 20 21 25 8 7 9 8 8 5 8 6 8 8 4 5 5 7 8 10 12 11 7 9 10 15 7 8 12 7 11 8 9 8 9 9 12 12 11 9 6 7 10 12 8 3 5 9 7 12 12 15 14 13 13 10 10 11 10 9 10 10 9 9
18 19 19 20 21 21 22 21 21 20 19 19 20 20 22 21 21 20 19 19 19 19 18 18 17 17 18 12 10 7 12 2 7 8 4 3 6 8 5 7 8 8 9 11 11 10 9 13 10 7 5 11 4 2 9 2 4 10 9 8 9 9 10 9 8 8 7 7 5 6 7 3 12 9 12 15 15 14 12 10 9 9 7 7 7 8 9 9
19 19 19 19 20 21 22 22 22 21 21 18 17 20 20 21 20 20 20 19 19 19 18 16 16 15 7 5 9 12 3 8 7 10 11 8 8 9 9 6 10 9 8 11 9 8 11 9 10 7 12 4 1 6 6 6 5 9 9 8 9 9 8 9 9 7 7 6 3 6 7 4 8 11 13 15 15 15 13 12 11 10 9 7 6 6 6 8
21 21 20 20 20 20 21 21 21 22 21 18 17 18 19 18 19 19 20 20 19 19 18 16 15 14 9 6 11 11 5 8 9 9 10 9 8 9 10 9 6 9 8 10 10 8 9 8 11 10 13 12 7 9 12 5 9 7 9 9 9 8 7 4 9 8 8 5 2 6 2 5 3 4 10 14 16 15 13 11 10 10 7 8 8 5 6 6
21 21 22 22 23 22 22 21 21 20 20 19 20 19 19 18 18 19 19 19 19 18 18 16 11 12 7 8 9 9 5 4 7 7 9 8 8 8 8 8 9 10 9 9 10 5 6 10 11 9 10 5 5 7 5 4 8 8 8 8 8 7 7 5 7 7 5 5 5 4 4 5 5 5 10 14 15 14 13 11 11 9 9 8 7 6 5 5
21 21 22 23 23 23 24 23 22 21 19 18 19 21 20 19 18 18 18 18 19 18 16 12 10 6 8 9 10 8 6 3 6 7 6 7 6 7 6 8 8 8 9 12 12 12 11 11 12 11 10 7 7 5 5 2 3 8 5 8 5 6 8 5 6 7 1 6 1 5 5 3 1 3 16 14 13 13 14 11 9 8 8 7 7 8 7 6
20 21 21 22 22 23 22 23 22 22 20 19 19 19 20 20 19 18 17 17 13 15 15 12 9 5 8 10 11 11 6 3 3 5 5 5 6 7 8 9 9 9 9 11 11 11 12 11 12 13 11 10 10 2 6 7 4 4 3 3 5 2 5 7 3 8 5 7 7 5 4 5 5 6 13 13 12 12 14 11 8 8 7 6 7 6 7 8
21 21 22 22 22 23 23 22 23 22 23 21 21 21 20 20 19 17 15 15 17 16 14 10 7 6 7 11 11 4 5 3 3 5 6 5 7 8 8 9 9 9 8 10 11 9 11 10 12 12 11 12 7 8 9 6 1 4 17 11 0 5 5 5 6 10 7 10 10 7 2 7 6 8 12 12 12 11 11 10 9 8 7 7 8 7 7 7
21 21 22 22 23 23 23 23 22 22 21 22 22 23 21 21 18 16 15 14 12 10 9 8 6 5 7 10 13 7 7 5 8 9 8 9 8 9 10 8 10 10 10 9 9 9 8 10 12 11 10 11 8 8 5 2 6 3 7 5 10 6 3 3 9 11 6 10 11 8 3 3 10 9 12 9 7 9 9 10 10 9 8 8 8 8 9 9
20 21 22 21 23 24 23 22 22 22 22 23 23 25 22 18 16 15 13 12 14 13 8 6 7 9 9 10 1 5 6 11 15 16 11 10 10 11 9 10 10 10 10 10 8 8 9 10 11 11 13 11 6 7 4 6 6 6 6 9 4 3 2 6 10 10 10 10 11 11 1 6 8 9 11 12 11 7 9 9 10 9 8 9 9 8 8 9
21 21 20 20 23 25 23 21 22 22 23 23 25 24 19 16 13 11 13 11 8 6 5 5 2 10 7 1 2 8 9 12 12 12 14 11 9 10 10 11 9 9 10 11 11 10 10 11 7 10 11 9 9 8 5 5 3 5 9 6 7 7 8 6 5 11 12 11 10 11 6 3 11 10 12 12 10 11 8 10 9 8 8 9 9 8 8 7
21 20 21 21 22 24 24 23 22 21 22 24 23 21 18 16 9 13 11 6 6 6 7 9 9 6 12 15 9 10 11 13 11 7 5 7 9 10 10 10 9 11 11 12 12 12 8 10 8 11 9 9 8 9 5 7 4 7 10 6 7 15 14 4 6 12 13 13 9 9 8 4 12 8 12 13 10 11 9 6 4 7 10 9 9 9 9 8
22 23 22 22 22 24 25 24 22 23 22 26 23 24 13 8 6 7 7 5 5 4 5 7 8 9 4 3 14 13 3 12 4 4 12 8 7 8 10 10 11 12 11 10 9 11 8 10 9 10 11 9 10 10 6 10 7 8 5 8 13 5 12 9 4 9 14 12 10 11 5 2 7 6 12 12 11 9 9 5 3 9 8 10 10 10 8 8
22 22 22 22 23 24 26 23 24 24 19 21 14 10 4 3 3 4 7 9 10 11 15 4 12 12 16 12 6 5 8 5 7 6 7 9 9 10 12 10 11 12 13 11 9 13 8 11 10 11 9 12 14 10 12 7 13 11 11 15 7 9 7 12 14 12 6 4 7 9 9 13 12 6 9 11 10 12 13 7 6 7 10 9 10 10 9 9
21 22 21 21 22 24 24 24 24 25 17 11 12 9 8 11 10 6 13 12 13 15 16 15 12 12 12 10 8 4 10 9 12 12 13 10 14 12 11 10 12 12 12 14 14 10 11 13 12 13 14 13 16 15 10 11 10 12 12 10 8 6 9 2 8 9 4 4 2 12 9 3 8 14 13 12 11 14 15 11 10 12 13 10 11 11 11 10
21 21 21 21 23 24 24 25 26 22 22 7 5 8 7 9 7 8 9 11 10 13 15 17 15 15 11 13 14 7 3 9 10 13 11 11 13 13 9 12 14 14 12 13 13 13 13 14 13 16 17 18 15 13 16 15 12 10 10 8 9 8 7 9 7 6 5 5 3 14 11 10 12 13 15 14 13 13 16 15 15 10 9 9 11 13 11 11
21 23 22 22 23 24 25 25 25 20 9 5 7 10 8 9 8 8 9 11 16 16 17 16 16 15 14 10 11 8 12 10 10 9 11 10 10 13 11 13 14 14 15 15 14 13 14 13 17 14 15 14 10 14 16 17 14 9 9 9 8 7 8 7 2 8 5 6 1 4 5 5 12 18 15 14 15 11 12 15 9 6 9 10 13 12 12 12
18 23 24 23 25 25 27 24 25 11 7 10 11 6 7 7 8 10 11 8 11 13 14 13 14 13 13 12 9 17 13 10 12 11 9 10 11 9 13 16 16 15 15 17 19 16 14 14 13 13 12 16 17 14 14 13 13 12 12 12 11 10 11 9 10 11 9 10 8 9 5 1 8 11 9 12 13 13 11 8 8 10 12 12 11 13 11 10
17 22 23 24 23 26 28 22 9 5 11 11 6 5 6 7 7 9 10 8 9 12 12 13 7 9 8 10 2 6 11 12 12 10 10 13 13 11 11 11 12 14 16 18 19 19 19 19 17 15 16 19 22 17 15 14 13 11 13 14 12 14 12 11 13 13 9 2 6 7 6 4 6 10 9 11 11 12 4 9 12 12 12 13 14 14 13 12
16 19 22 22 22 26 30 6 5 14 14 10 8 8 8 7 8 8 8 5 9 2 10 10 6 5 4 9 6 9 8 12 12 12 14 11 13 12 8 11 9 14 15 17 16 12 14 16 18 19 19 22 18 13 12 11 9 8 11 10 12 13 13 14 15 11 9 9 4 5 5 4 11 8 8 12 15 16 10 12 15 13 13 15 16 12 7 22
16 19 20 22 21 21 13 4 12 17 11 6 9 9 9 8 5 10 6 6 9 8 6 9 9 3 5 6 9 8 9 8 13 14 17 12 12 11 14 10 11 10 12 9 8 11 12 18 18 18 18 17 16 12 11 12 11 10 10 14 12 13 15 16 14 11 11 12 9 10 0 1 3 4 16 4 14 12 14 18 16 13 12 16 9 5 19 18
17 17 19 21 23 9 6 9 13 12 9 11 11 10 10 8 7 7 5 6 4 8 8 6 2 4 6 7 11 11 8 9 10 14 16 9 9 10 12 14 12 13 14 11 14 8 15 16 18 17 15 14 15 15 14 15 14 10 12 14 14 15 17 19 10 10 12 11 10 4 8 3 5 8 11 13 15 15 16 16 13 12 13 12 8 12 25 17
17 16 17 18 24 24 8 7 10 12 10 12 11 11 8 9 9 5 6 9 5 4 5 6 0 6 6 7 11 13 13 7 11 13 16 14 13 10 11 15 15 14 13 16 14 13 10 13 15 15 14 14 10 8 9 14 14 15 15 10 10 16 16 13 12 12 11 11 12 5 10 8 4 8 8 10 11 14 14 15 15 15 14 12 10 17 18 15
15 14 15 16 19 6 2 8 11 16 14 11 12 12 13 9 7 7 5 7 5 6 6 5 7 7 10 10 9 13 15 7 7 6 14 12 14 13 13 9 13 14 15 14 18 15 18 12 10 11 12 14 15 14 14 15 17 17 20 18 14 14 13 11 9 6 10 11 9 11 10 7 5 7 7 8 4 9 12 11 12 12 13 9 12 15 15 12
15 14 12 11 6 8 10 10 3 10 12 11 12 14 10 7 6 6 9 2 5 7 7 7 8 6 12 11 9 12 12 10 9 4 10 10 11 12 10 10 9 10 11 13 13 14 16 18 16 6 7 12 12 10 9 14 16 15 11 16 15 13 11 11 11 11 11 10 11 13 13 8 7 5 11 6 10 10 6 8 13 14 14 9 12 12 16 14
16 15 12 8 8 8 6 11 14 15 11 14 13 9 6 7 8 8 8 7 10 7 9 8 8 7 12 11 11 12 11 12 10 11 9 10 10 11 12 11 8 10 10 11 12 13 15 16 14 15 8 11 11 12 11 12 11 12 13 11 9 8 6 8 7 10 9 9 9 9 12 11 3 7 8 5 7 4 4 7 10 12 13 14 15 13 14 15
18 16 17 15 12 8 13 16 14 12 12 12 10 7 6 7 9 10 12 8 1 1 5 3 8 9 10 10 11 12 12 12 11 11 12 11 11 12 13 14 12 10 10 10 12 10 10 12 15 15 14 14 14 12 9 12 12 12 9 8 9 9 9 10 9 7 9 11 10 11 8 10 4 9 5 8 4 3 1 4 3 7 12 14 14 10 15 15
20 18 11 9 9 11 11 12 11 12 12 9 7 6 8 9 10 10 13 11 7 3 7 7 2 3 8 9 9 11 11 12 11 10 12 10 11 10 12 16 17 13 12 11 9 9 10 10 15 17 13 12 14 12 10 10 9 12 11 9 10 9 9 11 7 9 9 8 9 15 14 3 9 3 2 5 3 3 1 2 4 10 13 14 15 14 16 16
24 20 15 12 12 14 17 16 13 12 8 7 7 8 9 10 10 10 8 7 6 7 5 5 8 6 8 8 8 10 8 9 12 11 11 11 10 10 10 12 16 16 10 10 8 10 13 10 10 20 12 15 15 15 15 12 12 12 11 11 12 12 7 12 10 13 13 10 8 6 4 8 10 13 10 9 4 4 3 5 7 11 15 16 16 17 16 13
18 8 9 9 10 11 13 11 11 10 7 7 7 9 12 11 8 11 1 11 8 5 1 8 7 8 7 8 8 12 18 12 14 11 10 12 11 11 12 9 13 16 12 11 5 10 7 8 11 8 9 9 9 13 15 8 10 7 12 13 11 9 12 10 12 14 16 13 12 6 10 8 5 6 6 11 11 9 8 8 11 12 15 14 14 16 16 15
9 11 10 11 12 12 10 10 7 8 7 8 9 11 11 11 15 16 5 9 13 9 5 8 7 9 8 8 8 8 10 10 8 9 8 10 11 13 10 11 12 16 17 12 9 8 12 8 5 8 13 13 7 2 4 10 10 10 9 8 12 16 15 11 10 7 10 12 9 9 7 11 7 4 3 4 6 10 7 8 12 12 14 14 14 15 15 15
10 10 13 15 15 13 8 10 9 7 8 8 12 14 10 14 12 15 4 6 8 8 9 9 3 8 8 8 10 11 10 9 8 9 10 10 8 12 13 10 11 11 15 13 11 2 4 9 9 12 10 10 12 8 12 14 12 11 11 9 11 8 13 10 9 10 11 11 8 8 10 6 4 8 9 9 11 10 7 9 12 13 12 13 16 17 15 15
11 10 10 12 14 14 9 10 8 8 8 10 12 11 13 16 18 17 12 8 3 11 8 8 11 8 10 9 8 11 10 10 8 8 8 8 10 13 13 8 9 12 10 11 10 9 4 9 9 4 3 5 6 9 8 7 12 14 9 12 12 12 11 11 8 8 4 9 8 7 11 2 4 7 8 6 6 7 9 9 9 10 12 14 15 15 14 13
8 7 9 13 12 13 11 9 8 9 10 13 12 12 7 12 13 13 11 9 6 8 9 12 9 8 6 11 10 7 11 11 8 7 9 8 4 9 9 13 11 14 10 4 10 5 10 4 10 6 7 3 8 6 8 8 9 12 11 10 8 9 8 10 8 8 8 7 7 6 6 7 3 3 6 12 10 12 10 9 8 9 12 14 16 14 12 13
8 8 8 6 14 13 11 9 9 11 12 12 14 13 14 12 10 12 14 7 8 8 13 11 11 10 10 11 11 5 10 9 8 8 7 7 7 7 6 6 7 8 11 9 10 8 9 6 9 10 10 10 9 6 11 12 11 10 10 11 9 9 10 11 11 9 11 9 7 7 3 5 4 7 5 10 10 12 11 10 10 11 9 14 14 14 13 13
8 7 8 10 13 14 11 10 9 10 10 13 12 12 12 10 14 12 5 5 7 8 8 10 11 11 10 9 10 2 6 7 7 10 10 9 14 11 7 10 11 10 7 9 8 8 7 5 8 11 10 8 8 9 10 16 12 12 10 10 6 8 9 7 7 9 10 11 12 8 8 6 3 3 6 9 9 11 10 10 10 10 12 14 12 14 15 14
9 11 3 14 13 13 11 10 10 11 12 12 14 17 16 13 11 7 9 4 7 8 10 9 10 11 10 11 9 11 6 6 8 9 5 11 10 8 9 9 7 10 6 6 9 8 11 8 8 11 12 13 15 15 12 8 5 6 10 13 12 12 9 9 8 9 10 11 10 5 2 5 5 2 7 7 10 11 8 9 11 11 12 12 13 16 15 13
9 9 8 11 11 11 11 12 12 13 12 14 16 16 14 15 12 11 11 10 8 8 11 9 9 12 13 10 9 12 6 9 7 10 11 2 7 12 14 5 8 9 7 4 8 8 9 9 9 7 6 7 11 10 14 5 8 7 7 8 10 14 17 15 11 7 11 11 14 9 3 4 1 3 8 10 8 9 9 9 11 11 11 13 14 12 12 12
8 9 12 8 12 11 13 10 11 11 13 15 15 16 16 15 10 9 10 12 11 11 8 10 11 8 12 9 12 11 11 10 5 10 14 3 7 13 14 9 8 11 12 9 13 5 7 1 9 7 8 9 7 8 7 5 5 8 14 7 11 11 14 12 11 8 9 7 9 7 8 6 5 3 6 9 9 8 9 9 11 12 12 13 12 13 12 11
7 7 8 9 9 10 11 13 14 12 12 15 15 15 17 14 10 13 14 13 10 11 12 9 9 13 14 12 11 10 11 7 10 2 5 9 9 4 8 4 1 12 9 11 9 7 6 7 6 7 7 9 8 7 11 12 9 10 10 5 8 10 11 12 10 10 10 5 5 10 15 12 12 11 10 10 11 10 10 12 11 10 11 12 12 12 12 12
7 9 8 10 9 11 11 13 14 15 13 10 11 12 16 16 11 11 15 10 11 12 11 12 11 11 11 10 7 10 11 12 10 11 8 10 9 6 8 7 7 8 11 9 7 6 7 9 9 11 11 12 12 11 12 10 11 12 15 16 17 14 13 15 11 10 7 11 3 7 17 13 9 11 10 10 11 10 10 10 11 11 12 12 13 12 14 15
8 9 12 9 7 8 13 13 16 14 16 17 12 10 14 15 15 13 13 14 12 11 11 9 16 14 9 11 10 10 9 13 12 10 4 11 8 6 3 7 11 6 6 9 8 7 9 9 12 12 13 13 12 14 17 17 17 12 13 14 13 12 12 12 12 11 12 7 9 8 11 14 13 14 12 11 13 11 10 11 11 12 12 12 13 13 15 16
11 9 11 12 12 11 12 13 17 19 18 17 11 13 15 17 17 16 9 11 12 11 13 11 13 14 14 12 11 11 11 10 10 4 6 6 10 2 8 8 10 5 7 8 8 5 5 10 13 14 14 14 16 15 13 14 14 9 9 12 12 10 5 14 19 21 14 11 11 11 12 12 10 12 12 13 13 12 11 11 11 12 13 13 14 14 14 14
10 9 7 9 11 12 12 14 16 17 16 16 13 12 12 15 17 15 14 10 11 14 13 16 14 14 16 15 12 12 10 8 3 6 3 9 7 6 8 9 5 9 6 10 7 8 6 5 9 11 11 15 18 17 12 8 6 13 13 11 8 1 5 2 4 13 9 10 5 7 12 8 6 8 11 14 12 12 10 12 13 11 12 13 12 13 14 14
11 10 9 9 12 10 12 15 14 15 14 14 13 13 11 14 16 14 14 12 11 11 12 14 15 14 14 16 14 13 16 11 9 7 10 9 12 2 6 5 10 12 7 9 7 7 9 7 7 9 10 9 12 16 6 1 7 12 13 10 10 10 10 3 2 6 8 2 3 6 4 6 7 10 12 14 14 15 14 12 12 10 12 13 13 13 12 13
10 11 13 9 10 11 11 11 13 14 15 14 13 14 11 11 12 11 11 11 13 13 12 14 14 13 11 15 16 16 13 10 6 12 9 7 8 10 6 12 16 13 6 9 2 8 6 6 8 8 9 8 10 10 10 10 7 9 10 6 9 7 10 3 13 14 9 5 3 2 2 4 9 11 13 12 13 13 13 13 12 12 12 13 13 13 13 13
Wind_Direction
351 350 349 348 348 347 346 344 342 342 341 340 338 337 337 335 334 331 326 325 321 320 316 313 312 311 310 313 315 316 321 309 303 269 238 322 57 69 100 122 141 164 183 203 223 228 208 229 246 248 287 282 256 241 321 254 75 44 47 55 62 60 60 64 69 74 107 104 112 118 109 99 102 109 115 127 111 95 106 102 104 102 97 103 121 134 141 149
350 349 348 347 347 347 345 343 342 341 340 339 337 336 335 334 332 330 327 323 322 318 316 313 310 309 309 311 316 319 319 295 284 265 268 26 325 100 113 136 153 171 181 214 217 216 254 221 239 341 293 296 303 321 301 46 50 72 71 58 62 45 57 67 77 78 85 84 110 101 89 101 110 123 117 112 107 108 103 104 111 107 110 115 132 135 142 145
348 348 347 347 346 346 345 343 342 340 338 337 336 335 333 332 331 329 325 322 320 320 316 313 311 309 309 313 317 318 311 292 270 264 83 79 92 140 138 152 169 168 191 224 311 298 331 346 315 328 295 300 302 24 6 78 50 56 83 81 75 74 73 76 89 107 119 122 98 95 110 94 106 99 141 103 112 116 114 122 125 125 128 131 135 146 152 144
347 347 346 346 345 345 343 342 341 339 338 336 335 334 331 330 329 327 325 322 320 318 316 313 313 311 309 309 328 315 285 282 291 81 82 126 132 150 170 165 177 188 219 253 277 295 312 267 295 329 287 261 284 304 48 40 66 50 61 58 78 90 102 92 86 80 77 67 81 102 111 116 113 126 104 120 108 104 121 131 133 135 134 135 145 146 142 132
347 346 346 345 344 343 342 341 340 339 337 335 333 332 331 328 327 326 323 321 318 317 314 313 313 313 311 310 311 286 292 287 93 82 113 136 131 177 188 187 187 207 227 258 278 262 242 272 290 280 307 318 312 292 54 98 78 69 70 87 100 94 85 72 74 74 78 119 140 121 83 82 155 89 124 107 103 117 110 116 124 133 138 140 137 130 142 130
346 345 344 344 342 341 340 340 339 338 337 334 332 330 328 327 325 323 321 319 317 314 313 313 313 316 316 309 300 248 274 345 106 106 146 146 150 165 195 208 222 265 265 274 281 287 260 245 227 120 309 286 246 65 42 41 57 95 65 67 68 80 83 95 89 116 167 122 77 82 118 132 87 80 84 93 86 88 108 122 130 131 136 138 138 138 142 140
346 345 343 343 341 340 339 338 337 337 335 333 331 328 328 325 324 321 319 316 313 312 312 312 313 319 324 306 260 200 261 286 103 102 123 179 153 159 190 220 234 245 257 271 275 278 294 304 283 143 189 324 298 101 54 335 66 62 83 82 75 71 73 74 85 48 28 71 83 116 124 87 115 82 85 87 97 98 100 113 125 131 134 144 145 152 150 157
346 345 344 342 340 339 338 337 335 334 333 332 329 328 326 324 321 319 316 313 311 310 310 312 313 317 346 335 325 250 258 121 98 118 132 198 160 162 175 220 227 242 264 275 297 309 342 307 354 342 157 197 351 15 95 261 23 94 97 83 91 92 86 74 73 81 63 58 37 290 84 360 86 101 103 102 107 113 111 111 118 123 133 145 145 149 161 146
345 345 344 342 340 338 337 335 333 333 331 329 327 326 324 322 318 315 313 311 309 307 308 309 312 315 302 271 287 302 314 90 116 145 148 183 181 162 192 207 216 241 268 283 290 299 295 19 322 11 332 310 351 71 120 54 76 78 88 104 90 89 104 113 107 108 123 81 359 38 54 73 104 120 102 115 115 118 131 141 139 139 146 144 155 155 164 160
345 344 343 341 339 337 335 334 332 331 330 328 325 323 320 316 313 311 310 307 306 304 305 310 313 317 303 265 294 272 89 117 112 141 170 189 172 172 196 246 216 230 271 288 287 303 339 345 320 324 341 293 300 57 101 169 112 121 96 86 97 105 109 136 108 105 86 87 34 80 261 84 98 229 109 119 126 127 139 141 143 140 145 160 152 175 171 155
344 343 342 341 339 336 335 333 332 329 329 327 323 321 317 312 310 308 305 305 303 302 302 307 324 318 302 300 286 281 117 170 131 155 171 204 175 194 208 229 259 277 279 280 286 289 313 321 341 315 276 9 285 96 358 54 114 97 107 116 125 131 118 132 98 124 124 106 121 115 42 351 88 270 127 128 132 141 138 143 151 150 157 148 151 187 140 166
343 342 341 339 337 335 334 332 330 329 325 323 320 317 314 311 307 303 301 300 299 297 300 306 322 294 276 273 263 274 122 173 175 139 171 200 204 225 245 242 262 272 289 299 308 327 345 324 315 319 320 329 281 273 175 258 160 103 189 143 115 152 136 171 151 109 251 128 119 86 131 198 246 63 125 133 143 151 143 140 161 136 128 149 188 160 172 181
342 342 340 338 336 334 331 330 328 325 323 320 317 314 311 307 305 301 299 300 294 298 301 304 308 265 293 282 254 251 212 138 204 151 159 219 246 226 240 254 256 270 284 294 301 320 322 312 312 301 308 307 314 354 56 265 106 115 160 52 315 12 348 135 162 109 171 132 116 166 180 181 160 170 129 134 157 154 137 143 156 124 153 168 181 175 174 185
341 340 339 336 334 332 330 327 325 323 322 319 318 315 310 305 300 298 294 287 292 288 288 297 288 278 276 268 274 327 284 281 223 209 220 208 244 246 237 250 263 266 273 275 285 296 299 300 297 293 286 279 336 39 223 236 238 79 51 3 319 290 267 200 180 149 176 143 157 198 27 137 143 151 137 144 155 160 129 149 139 151 177 178 186 175 177 175
339 339 337 335 332 331 329 327 322 320 319 320 316 313 307 301 297 293 288 289 275 276 300 289 236 275 244 264 260 285 61 270 259 238 248 242 227 257 245 242 249 257 267 271 283 284 291 296 290 279 272 254 238 238 244 21 347 358 58 2 276 264 17 176 154 170 190 165 189 194 208 185 156 153 141 144 151 152 145 149 161 161 191 180 191 181 176 180
338 337 335 332 331 330 328 324 322 320 319 319 317 309 302 291 288 287 279 272 287 292 274 265 211 231 285 277 106 37 239 232 238 238 241 249 247 254 274 248 236 248 246 254 256 254 252 272 282 302 299 300 233 261 41 9 237 243 182 201 222 245 214 242 158 173 185 180 188 206 44 120 148 154 140 142 174 153 158 161 168 165 186 177 206 189 184 179
338 337 334 332 331 330 327 324 322 319 317 318 318 305 294 282 280 283 279 274 276 217 227 268 262 193 249 261 216 248 242 233 242 244 231 217 240 252 247 267 263 245 234 251 258 266 266 268 284 263 248 277 292 257 194 156 333 334 292 259 215 236 215 212 196 188 184 190 178 201 222 298 134 153 150 151 172 174 181 158 163 163 189 201 214 191 187 167
339 337 335 331 330 330 327 325 322 319 319 319 313 291 286 286 298 300 260 217 225 230 231 251 277 292 241 250 250 233 224 239 228 229 226 198 220 247 253 261 262 267 279 260 230 247 249 253 239 263 274 237 235 260 213 271 204 228 239 281 265 190 242 184 215 174 198 191 188 182 229 263 125 158 159 153 169 185 91 60 334 195 194 193 212 219 186 181
339 337 334 332 329 330 328 323 321 325 324 319 293 275 253 251 265 239 271 216 208 189 212 186 201 195 34 25 218 254 278 10 68 190 212 218 199 230 252 250 267 282 256 245 249 235 227 256 253 260 256 256 242 247 219 202 238 253 289 250 267 177 212 187 268 163 193 186 202 176 211 2 59 145 163 170 172 155 116 98 148 309 229 193 208 216 188 188
338 337 334 331 329 327 327 321 322 324 335 333 339 325 238 244 196 171 209 228 242 265 288 314 194 246 283 270 265 182 72 77 262 184 265 224 244 230 238 242 241 235 255 259 253 234 249 247 239 239 243 264 272 267 273 166 192 233 233 255 267 296 294 142 171 218 158 237 216 206 178 101 115 346 241 177 175 139 129 146 206 220 263 202 207 217 191 194
337 337 334 330 328 325 322 324 319 320 329 306 299 300 357 15 345 354 338 302 275 255 263 269 250 243 248 262 257 198 256 228 214 242 220 231 231 242 223 222 234 243 235 241 256 269 229 242 251 253 260 244 256 269 261 264 233 229 257 276 277 264 270 264 212 199 168 205 46 111 119 179 153 169 221 183 192 155 145 172 205 211 223 208 196 209 196 196
336 335 333 332 325 324 323 320 316 319 315 265 274 290 9 26 2 330 328 303 289 281 267 258 257 253 249 263 282 348 7 284 245 214 228 211 210 220 211 224 225 237 239 237 237 248 254 249 238 243 233 235 238 265 283 283 273 268 271 270 273 275 302 294 278 95 266 305 295 114 141 176 156 182 211 197 190 171 156 181 195 213 236 205 189 205 187 186
335 334 335 330 327 323 324 314 313 315 304 253 275 307 23 345 351 336 306 284 277 266 257 254 247 238 249 247 258 242 243 236 260 188 215 199 214 207 235 223 229 239 241 240 243 233 240 243 256 251 268 272 244 251 264 273 270 275 275 273 275 282 272 278 207 292 276 213 138 126 139 158 167 180 201 191 180 169 157 179 178 186 251 249 198 209 185 187
333 335 333 332 327 325 319 317 304 291 228 244 290 355 358 344 333 340 317 286 295 281 254 230 232 241 232 233 203 230 231 232 234 247 204 193 220 198 223 241 234 230 235 237 241 249 246 244 240 251 244 256 265 249 232 244 263 268 269 271 276 280 288 303 302 300 261 78 51 56 312 224 174 194 194 186 163 159 130 167 174 194 221 254 231 205 194 172
331 333 333 330 330 324 315 319 299 302 327 293 262 37 342 345 340 349 318 290 238 247 235 243 217 229 238 206 218 240 215 239 242 237 237 198 204 224 229 230 251 235 230 233 243 245 250 256 259 247 252 244 228 228 231 242 250 251 259 267 279 287 276 272 295 292 297 78 188 172 244 248 174 199 224 195 143 59 141 186 213 196 210 225 223 207 185 96
330 332 332 330 331 331 306 290 2 343 312 293 15 351 356 333 1 325 301 279 279 183 150 206 136 192 226 193 173 231 256 243 220 229 246 208 202 231 209 230 218 242 239 231 234 244 254 244 246 259 258 265 271 279 292 305 286 270 258 264 274 271 277 274 259 249 250 286 152 234 262 333 27 352 333 75 107 157 212 209 215 207 202 215 214 199 134 84
333 330 332 329 331 340 335 359 336 310 299 44 352 346 325 341 350 311 287 236 253 140 181 102 196 148 248 175 190 175 223 233 197 212 229 214 206 190 259 223 206 241 259 260 229 235 236 250 253 239 253 269 281 262 240 258 268 261 282 277 281 268 276 274 273 281 281 286 157 210 241 140 98 315 308 146 138 164 191 207 212 207 200 211 204 142 79 97
329 329 329 330 319 341 274 299 308 313 325 355 339 335 324 333 310 273 268 292 257 160 167 164 7 109 247 147 205 195 234 355 198 187 218 158 208 189 228 244 238 218 216 245 256 241 228 236 241 258 243 242 241 242 249 235 242 252 264 271 266 278 280 296 315 305 304 311 288 147 88 141 166 249 217 165 154 172 188 211 213 216 203 201 186 126 106 148
326 326 329 328 320 300 241 233 292 283 314 326 326 327 326 312 295 312 279 273 113 209 27 177 26 194 207 169 208 212 239 204 286 161 191 195 183 245 208 236 264 262 227 219 245 256 250 247 250 232 250 252 254 275 281 274 275 270 257 227 272 283 278 276 277 284 270 268 267 218 191 267 224 201 205 170 157 161 190 209 218 222 201 172 162 127 140 152
322 323 326 332 318 269 225 239 254 262 284 319 324 313 310 291 271 244 223 250 129 198 173 91 209 181 191 194 205 203 229 222 240 125 177 206 175 217 261 261 232 246 264 238 231 245 266 265 251 246 240 242 253 237 247 252 256 270 288 302 289 270 262 263 276 265 273 261 266 272 279 278 301 167 217 161 147 174 182 202 228 227 222 155 156 153 148 135
319 317 319 327 296 349 319 284 197 354 335 327 317 306 284 261 256 269 250 19 266 107 167 146 181 166 183 202 205 190 222 231 198 163 185 191 199 207 228 235 257 260 241 254 255 235 235 257 263 239 277 288 308 303 253 253 258 255 250 243 236 241 258 274 271 274 265 261 268 272 263 276 268 35 357 84 168 199 187 211 192 203 216 181 171 169 133 128
314 310 303 296 277 323 278 274 321 322 322 316 310 298 273 259 210 235 247 116 261 112 244 177 156 203 183 210 233 169 204 217 212 183 218 175 217 200 202 243 182 228 230 233 238 242 236 229 247 253 222 264 262 258 266 284 269 245 257 275 296 291 287 260 239 246 247 267 278 295 306 293 220 213 143 335 265 239 168 188 203 193 183 173 180 157 123 132
312 306 295 269 254 239 242 257 282 292 298 305 302 274 252 253 242 214 243 258 111 144 107 308 164 197 197 197 231 174 191 223 188 199 220 195 231 199 206 222 225 216 249 198 242 245 229 229 225 237 249 204 224 248 248 235 243 259 248 250 254 262 256 261 262 264 269 269 285 300 283 247 64 66 141 151 225 283 130 220 182 170 167 161 158 135 124 135
306 305 298 260 232 229 252 261 268 279 289 289 268 253 244 247 245 270 270 234 119 189 141 228 68 238 220 213 217 186 182 225 199 201 191 219 208 226 201 208 235 220 231 272 253 206 255 227 212 220 213 202 206 218 241 266 243 234 236 236 241 247 262 270 260 263 260 273 273 254 250 357 335 62 191 89 68 119 167 152 134 157 159 153 149 135 126 138
304 293 259 264 243 242 240 246 254 259 273 275 246 240 235 233 251 257 236 266 221 142 251 122 242 203 215 244 245 197 234 185 220 212 198 231 204 233 216 200 207 243 229 245 218 279 251 252 267 200 219 188 218 205 212 238 269 268 262 230 225 239 245 259 276 284 295 292 277 260 265 145 144 167 145 125 159 164 198 124 143 124 134 133 132 133 133 140
301 275 260 246 248 244 223 226 228 233 238 243 245 226 230 236 233 211 304 330 26 320 83 146 237 225 229 209 222 248 173 265 170 229 212 215 232 214 225 213 201 200 236 231 213 229 218 265 287 88 189 256 230 211 195 203 254 204 231 256 264 241 226 250 260 263 264 257 262 292 289 99 148 135 141 146 168 154 150 137 128 129 131 139 140 131 133 141
302 305 276 271 254 240 223 196 195 204 220 241 239 237 237 244 260 289 324 281 31 325 338 273 187 235 201 211 197 211 176 210 207 200 232 195 229 243 222 227 208 189 223 252 251 273 304 306 289 215 187 203 244 346 293 188 219 283 259 237 249 270 294 294 290 261 242 249 246 237 246 134 161 130 265 152 120 101 122 141 134 132 139 146 123 124 133 142
306 292 284 269 258 260 213 172 187 203 224 227 236 251 267 264 251 263 354 340 278 228 271 259 236 224 216 217 188 181 176 218 168 188 265 174 254 179 235 249 191 226 190 219 267 289 311 269 250 259 263 171 177 228 232 246 232 233 253 295 267 225 225 226 237 253 283 289 314 298 308 63 140 137 174 160 134 130 136 132 141 149 154 127 120 128 134 138
283 281 282 256 224 226 181 167 196 211 217 224 235 243 246 260 277 289 323 347 304 303 270 246 282 207 261 237 179 171 167 212 186 205 230 160 242 154 224 212 205 195 226 208 222 255 231 271 291 288 146 240 211 168 252 220 213 241 248 252 252 270 271 281 271 302 306 290 290 292 278 94 84 127 164 143 117 114 134 144 153 154 125 125 129 130 140 145
273 269 251 249 196 175 148 182 200 214 221 226 224 238 256 251 249 249 249 239 262 243 243 275 229 285 231 266 295 219 158 225 195 194 232 134 242 126 238 165 264 169 223 197 267 212 260 207 280 267 158 282 217 177 235 252 256 198 213 241 250 253 295 302 283 266 262 259 244 268 265 116 82 354 158 141 149 144 163 160 154 133 137 129 133 138 145 138
272 266 282 152 138 145 162 190 208 209 219 234 246 250 239 247 239 239 240 208 252 245 276 289 311 298 339 333 273 165 158 220 224 217 205 183 199 190 223 215 210 260 161 231 229 236 243 241 262 274 247 187 265 232 228 227 236 269 210 213 230 247 226 222 254 267 266 267 277 274 276 103 313 305 112 126 159 154 155 149 137 135 140 134 138 145 141 128
279 248 228 146 138 156 180 196 211 213 228 228 226 228 247 244 265 276 280 188 221 271 228 263 269 285 289 261 292 250 202 192 219 260 166 267 166 261 161 190 178 245 212 210 214 210 250 267 258 260 276 266 228 227 252 220 217 245 276 274 272 243 228 247 258 251 254 245 256 253 273 107 285 252 144 135 152 146 132 142 137 138 130 131 140 131 129 132
242 240 324 156 159 186 193 225 211 216 226 234 239 243 244 251 258 261 265 244 237 220 266 254 250 265 262 273 288 296 297 224 178 233 254 188 209 201 129 157 162 220 262 257 182 230 168 248 261 277 296 302 302 292 294 73 2 314 287 283 265 268 257 228 235 264 273 284 273 288 265 101 153 168 106 117 114 116 127 136 134 141 134 134 122 131 138 140
263 252 228 182 179 203 214 215 209 215 224 231 235 243 241 248 227 231 242 247 249 203 228 243 251 248 278 261 284 282 149 243 157 253 244 70 277 111 104 280 108 239 182 183 248 145 230 178 242 264 261 254 268 282 302 222 180 239 261 249 266 275 284 294 289 248 264 260 262 259 302 146 76 103 110 106 105 112 129 143 142 136 137 120 123 135 141 140
281 263 260 201 181 202 224 219 227 216 217 226 226 233 238 233 242 257 240 233 228 259 224 224 254 246 224 257 278 263 296 303 303 211 280 308 243 120 130 227 163 257 206 5 343 26 258 157 176 240 244 258 243 240 231 259 259 273 206 227 274 264 264 266 261 259 248 243 255 277 92 91 110 131 138 117 123 144 132 143 132 133 147 129 133 140 140 136
233 239 211 205 187 212 230 240 245 241 220 214 231 233 232 240 207 220 247 258 253 232 251 271 211 239 248 219 225 255 265 250 263 297 198 259 139 189 109 194 156 238 19 360 335 322 276 286 242 201 252 263 289 337 321 293 277 280 324 265 218 247 255 256 280 280 277 320 313 85 125 140 156 154 144 153 133 148 144 135 140 146 146 137 138 140 144 129
297 266 212 195 180 211 225 219 236 246 259 267 238 212 227 229 237 208 199 242 228 249 233 233 248 220 224 264 262 241 234 250 227 259 224 252 313 336 130 237 186 246 25 322 318 277 289 282 263 271 245 256 286 276 247 230 270 281 284 284 285 260 233 226 222 248 239 257 148 91 124 142 152 149 152 151 143 144 158 140 151 150 148 148 143 146 142 137
239 251 261 252 220 195 211 214 222 238 241 242 250 218 226 222 220 237 178 219 238 221 252 206 238 260 273 211 234 255 217 238 232 220 251 271 279 253 237 157 263 160 165 243 250 250 265 263 264 260 265 271 249 242 258 252 219 210 244 273 301 329 333 324 311 304 313 40 106 171 144 135 162 158 164 157 146 160 156 149 156 147 147 142 146 150 148 149
252 276 278 294 262 215 207 213 214 224 235 238 248 234 218 220 221 224 228 183 219 225 215 241 221 229 242 243 228 230 236 230 237 237 260 268 257 238 243 178 221 145 203 249 253 239 239 253 273 272 271 247 230 233 244 266 296 297 272 277 287 292 341 19 25 10 60 87 92 109 126 133 151 153 153 149 145 152 158 150 147 149 157 156 152 155 150 153
224 232 273 312 307 289 236 205 212 217 229 229 243 242 231 211 224 215 221 209 193 227 207 231 239 214 224 242 243 251 241 256 295 247 254 285 270 251 269 285 289 198 234 246 238 164 224 229 259 270 270 290 307 290 241 254 314 300 277 245 222 141 50 289 42 76 42 48 96 113 125 127 133 141 142 133 141 138 147 145 158 160 158 168 162 161 157 157
272 298 310 298 299 290 283 205 203 211 222 224 230 237 243 225 223 219 219 198 227 214 212 222 231 241 221 225 238 248 254 230 175 225 228 204 249 225 276 28 302 287 207 240 190 156 169 257 240 251 270 279 283 289 298 319 257 267 282 333 346 326 306 23 65 49 98 158 114 131 133 127 126 136 123 137 141 151 149 152 152 163 167 169 172 160 160 158
263 273 265 264 272 277 280 261 206 201 216 217 224 227 237 228 238 222 238 202 217 228 215 219 220 241 232 221 224 229 240 274 203 207 235 301 228 230 181 202 226 246 247 286 201 209 176 248 251 245 254 264 268 292 312 303 278 261 316 327 311 301 303 99 62 58 42 99 206 7 20 146 143 133 134 140 144 152 157 166 164 172 177 172 171 164 163 163